Regional Weather Roundup
Issued by NWS Bismarck, ND

Home | Current Version | Previous Version | Text Only | Print | Product List | Glossary On
Versions: 1 2 3 4 5 6 7 8 9 10 11 12 13 14 15 16 17 18 19 20 21 22 23 24 25 26 27 28 29 30 31 32 33 34 35 36 37 38 39 40 41 42 43 44 45 46 47 48 49 50
000
ASUS43 KBIS 221859
RWRBIS

NWR BROADCAST TEXT
NATIONAL WEATHER SERVICE BISMARCK ND
200 PM CDT FRI AUG 22 2014

NOTE: "FAIR" INDICATES FEW OR NO CLOUDS BELOW 12,000 FEET WITH NO
SIGNIFICANT WEATHER AND/OR OBSTRUCTIONS TO VISIBILITY.


CITY           SKY/WX    TMP DP  RH WIND       PRES   REMARKS
WILLISTON      CLOUDY    68  53  58 NE10      30.11R
MINOT          CLOUDY    63  60  90 N9        30.09S FOG
MINOT AFB      CLOUDY    64  61  88 NE14      30.09S
BISMARCK       CLOUDY    73  65  75 N8        30.04F
DICKINSON      NOT AVBL
GARRISON         N/A     64  62  93 NE7       30.08R
HETTINGER ARPT CLOUDY    69  59  70 CALM      30.08F
JAMESTOWN      NOT AVBL
BEACH            N/A     64  63  94 NE14      30.09F
CARRINGTON     CLOUDY    66  66 100 N8        30.07S
CROSBY         CLOUDY    64  55  72 NE10      30.14R
HARVEY         CLOUDY    68  63  83 NE10      30.08R
HAZEN          CLOUDY    66  63  88 NE8       30.07F
LINTON         FAIR      68  68 100 S5        30.05F
MANDAN         CLOUDY    72  64  78 N6        30.06S
RUGBY          CLOUDY    64  59  82 NE8       30.09R
TIOGA          CLOUDY    64  59  82 NE12      30.15R
WATFORD CITY   CLOUDY    63  57  82 NE9       30.09R
$$

CITY           SKY/WX    TMP DP  RH WIND       PRES   REMARKS
GRAND FORKS    CLOUDY    69  64  84 NW15      30.01F
GRAND FORKS AF NOT AVBL
DEVILS LAKE    CLOUDY    66  57  72 NE12      30.06R
FARGO          CLOUDY    72  67  84 N9        30.00S
CAVALIER       CLOUDY    68  63  83 N9        30.04R
GRAFTON        CLOUDY    68  63  83 N12       30.04R
GWINNER        PTCLDY    75  70  83 N9        30.02F
LANGDON        CLOUDY    68  59  73 NE14      30.07R
WALHALLA         N/A     70  64  83 N15       30.05S
$$

CITY           SKY/WX    TMP DP  RH WIND       PRES   REMARKS
ABERDEEN       CLOUDY    73  67  81 NE9       30.01S
MOBRIDGE       CLOUDY    72  63  73 NE5       30.02F
RAPID CITY     PTSUNNY   74  62  66 E7        30.05F
GLASGOW        CLOUDY    62  58  86 E15       30.11S
SIDNEY         CLOUDY    66  57  72 NE12      30.11R
WOLF POINT     LGT RAIN  64  57  78 NE10      30.11S
GLENDIVE       CLOUDY    64  61  88 NE12      30.09F
MILES CITY     CLOUDY    70  56  61 VRB6      30.06S
BAKER          CLOUDY    71  59  65 E8        30.08S
$$

CITY           SKY/WX    TMP DP  RH WIND       PRES   REMARKS
BILLINGS       LGT RAIN  59  57  93 NE9       30.07F
GREAT FALLS    LGT RAIN  56  54  93 N10       30.12F
$$




USA.gov is the U.S. government's official web portal to all federal, state and local government web resources and services.